Year,Month,Day,Hour,Minute,Value (Times are PST for windspeed in km/hr)
2006,12,14,00,00,17.50
2006,12,14,00,01,20.10
2006,12,14,00,02,18.30
2006,12,14,00,03,19.10
2006,12,14,00,04,18.30
2006,12,14,00,05,14.00
2006,12,14,00,06,17.90
2006,12,14,00,07,16.60
2006,12,14,00,08,17.50
2006,12,14,00,09,11.10
2006,12,14,00,10,5.50
2006,12,14,00,11,10.80
2006,12,14,00,12,8.50
2006,12,14,00,13,7.40
2006,12,14,00,14,13.10
2006,12,14,00,15,11.90
2006,12,14,00,16,10.30
2006,12,14,00,17,10.50
2006,12,14,00,18,8.40
2006,12,14,00,19,8.50
2006,12,14,00,20,9.70
2006,12,14,00,21,8.70
2006,12,14,00,22,5.30
2006,12,14,00,23,2.40
2006,12,14,00,24,0.60
2006,12,14,00,25,0.00
2006,12,14,00,26,0.10
2006,12,14,00,27,0.00
2006,12,14,00,28,0.00
2006,12,14,00,29,0.00
2006,12,14,00,30,0.00
2006,12,14,00,31,0.00
2006,12,14,00,32,0.00
2006,12,14,00,33,0.00
2006,12,14,00,34,0.20
2006,12,14,00,35,2.80
2006,12,14,00,36,6.90
2006,12,14,00,37,2.90
2006,12,14,00,38,1.40
2006,12,14,00,39,0.00
2006,12,14,00,40,0.00
2006,12,14,00,41,0.70
2006,12,14,00,42,2.00
2006,12,14,00,43,1.60
2006,12,14,00,44,0.00
2006,12,14,00,45,0.00
2006,12,14,00,46,1.40
2006,12,14,00,47,4.90
2006,12,14,00,48,0.60
2006,12,14,00,49,1.90
2006,12,14,00,50,2.20
2006,12,14,00,51,1.30
2006,12,14,00,52,2.10
2006,12,14,00,53,6.70
2006,12,14,00,54,4.80
2006,12,14,00,55,2.90
2006,12,14,00,56,2.80
2006,12,14,00,57,1.50
2006,12,14,00,58,0.10
2006,12,14,00,59,0.00
2006,12,14,01,00,0.00
2006,12,14,01,01,0.00
2006,12,14,01,02,0.00
2006,12,14,01,03,0.00
2006,12,14,01,04,1.80
2006,12,14,01,05,1.50
2006,12,14,01,06,2.10
2006,12,14,01,07,1.00
2006,12,14,01,08,0.80
2006,12,14,01,09,1.40
2006,12,14,01,10,0.00
2006,12,14,01,11,0.00
2006,12,14,01,12,0.00
2006,12,14,01,13,0.00
2006,12,14,01,14,0.00
2006,12,14,01,15,0.00
2006,12,14,01,16,0.00
2006,12,14,01,17,0.00
2006,12,14,01,18,0.00
2006,12,14,01,19,0.00
2006,12,14,01,20,0.00
2006,12,14,01,21,0.00
2006,12,14,01,22,0.00
2006,12,14,01,23,1.50
2006,12,14,01,24,1.60
2006,12,14,01,25,0.60
2006,12,14,01,26,0.30
2006,12,14,01,27,2.70
2006,12,14,01,28,4.70
2006,12,14,01,29,4.40
2006,12,14,01,30,3.60
2006,12,14,01,31,2.80
2006,12,14,01,32,2.60
2006,12,14,01,33,3.50
2006,12,14,01,34,3.10
2006,12,14,01,35,5.60
2006,12,14,01,36,6.30
2006,12,14,01,37,2.60
2006,12,14,01,38,1.00
2006,12,14,01,39,0.40
2006,12,14,01,40,0.00
2006,12,14,01,41,0.00
2006,12,14,01,42,0.00
2006,12,14,01,43,1.40
2006,12,14,01,44,1.50
2006,12,14,01,45,0.70
2006,12,14,01,46,0.00
2006,12,14,01,47,0.00
2006,12,14,01,48,0.00
2006,12,14,01,49,4.70
2006,12,14,01,50,5.40
2006,12,14,01,51,4.70
2006,12,14,01,52,6.00
2006,12,14,01,53,6.80
2006,12,14,01,54,7.00
2006,12,14,01,55,6.00
2006,12,14,01,56,4.70
2006,12,14,01,57,3.50
2006,12,14,01,58,2.60
2006,12,14,01,59,4.70
2006,12,14,02,00,6.40
2006,12,14,02,01,4.70
2006,12,14,02,02,2.20
2006,12,14,02,03,2.00
2006,12,14,02,04,3.40
2006,12,14,02,05,4.90
2006,12,14,02,06,1.60
2006,12,14,02,07,0.00
2006,12,14,02,08,0.60
2006,12,14,02,09,2.20
2006,12,14,02,10,0.70
2006,12,14,02,11,0.00
2006,12,14,02,12,0.00
2006,12,14,02,13,0.00
2006,12,14,02,14,0.00
2006,12,14,02,15,0.00
2006,12,14,02,16,0.00
2006,12,14,02,17,0.00
2006,12,14,02,18,0.00
2006,12,14,02,19,0.00
2006,12,14,02,20,0.00
2006,12,14,02,21,1.20
2006,12,14,02,22,1.00
2006,12,14,02,23,0.30
2006,12,14,02,24,0.00
2006,12,14,02,25,0.20
2006,12,14,02,26,2.20
2006,12,14,02,27,1.80
2006,12,14,02,28,0.40
2006,12,14,02,29,0.30
2006,12,14,02,30,0.00
2006,12,14,02,31,0.00
2006,12,14,02,32,0.20
2006,12,14,02,33,1.40
2006,12,14,02,34,0.00
2006,12,14,02,35,0.10
2006,12,14,02,36,0.00
2006,12,14,02,37,0.00
2006,12,14,02,38,0.00
2006,12,14,02,39,1.70
2006,12,14,02,40,4.70
2006,12,14,02,41,6.10
2006,12,14,02,42,3.60
2006,12,14,02,43,0.10
2006,12,14,02,44,0.00
2006,12,14,02,45,0.00
2006,12,14,02,46,0.00
2006,12,14,02,47,0.00
2006,12,14,02,48,0.00
2006,12,14,02,49,0.00
2006,12,14,02,50,0.00
2006,12,14,02,51,0.00
2006,12,14,02,52,0.00
2006,12,14,02,53,0.00
2006,12,14,02,54,0.00
2006,12,14,02,55,0.00
2006,12,14,02,56,3.80
2006,12,14,02,57,3.80
2006,12,14,02,58,0.40
2006,12,14,02,59,1.00
2006,12,14,03,00,3.10
2006,12,14,03,01,2.00
2006,12,14,03,02,1.00
2006,12,14,03,03,1.10
2006,12,14,03,04,3.80
2006,12,14,03,05,2.50
2006,12,14,03,06,1.20
2006,12,14,03,07,1.40
2006,12,14,03,08,0.10
2006,12,14,03,09,0.20
2006,12,14,03,10,0.10
2006,12,14,03,11,0.70
2006,12,14,03,12,1.50
2006,12,14,03,13,0.60
2006,12,14,03,14,0.00
2006,12,14,03,15,0.00
2006,12,14,03,16,0.00
2006,12,14,03,17,0.00
2006,12,14,03,18,0.00
2006,12,14,03,19,0.00
2006,12,14,03,20,0.00
2006,12,14,03,21,0.00
2006,12,14,03,22,0.00
2006,12,14,03,23,0.00
2006,12,14,03,24,0.20
2006,12,14,03,25,2.60
2006,12,14,03,26,2.20
2006,12,14,03,27,3.80
2006,12,14,03,28,1.70
2006,12,14,03,29,2.00
2006,12,14,03,30,0.80
2006,12,14,03,31,0.00
2006,12,14,03,32,0.00
2006,12,14,03,33,3.10
2006,12,14,03,34,4.60
2006,12,14,03,35,2.20
2006,12,14,03,36,0.10
2006,12,14,03,37,0.00
2006,12,14,03,38,0.40
2006,12,14,03,39,4.30
2006,12,14,03,40,2.00
2006,12,14,03,41,0.90
2006,12,14,03,42,0.00
2006,12,14,03,43,0.80
2006,12,14,03,44,1.10
2006,12,14,03,45,0.20
2006,12,14,03,46,0.50
2006,12,14,03,47,2.20
2006,12,14,03,48,0.00
2006,12,14,03,49,1.10
2006,12,14,03,50,0.00
2006,12,14,03,51,0.90
2006,12,14,03,52,5.40
2006,12,14,03,53,4.70
2006,12,14,03,54,4.80
2006,12,14,03,55,4.00
2006,12,14,03,56,8.00
2006,12,14,03,57,8.90
2006,12,14,03,58,10.90
2006,12,14,03,59,10.00
2006,12,14,04,00,9.00
2006,12,14,04,01,7.50
2006,12,14,04,02,5.30
2006,12,14,04,03,2.30
2006,12,14,04,04,2.20
2006,12,14,04,05,0.10
2006,12,14,04,06,1.80
2006,12,14,04,07,0.20
2006,12,14,04,08,3.00
2006,12,14,04,09,5.20
2006,12,14,04,10,2.00
2006,12,14,04,11,0.90
2006,12,14,04,12,2.60
2006,12,14,04,13,1.90
2006,12,14,04,14,0.00
2006,12,14,04,15,3.30
2006,12,14,04,16,4.10
2006,12,14,04,17,3.30
2006,12,14,04,18,0.10
2006,12,14,04,19,1.20
2006,12,14,04,20,0.90
2006,12,14,04,21,2.30
2006,12,14,04,22,0.00
2006,12,14,04,23,0.00
2006,12,14,04,24,1.40
2006,12,14,04,25,3.00
2006,12,14,04,26,4.80
2006,12,14,04,27,2.50
2006,12,14,04,28,2.20
2006,12,14,04,29,0.00
2006,12,14,04,30,0.90
2006,12,14,04,31,4.10
2006,12,14,04,32,2.90
2006,12,14,04,33,0.60
2006,12,14,04,34,0.00
2006,12,14,04,35,0.50
2006,12,14,04,36,1.00
2006,12,14,04,37,1.80
2006,12,14,04,38,1.60
2006,12,14,04,39,2.40
2006,12,14,04,40,0.30
2006,12,14,04,41,0.20
2006,12,14,04,42,0.60
2006,12,14,04,43,0.00
2006,12,14,04,44,0.00
2006,12,14,04,45,0.00
2006,12,14,04,46,0.00
2006,12,14,04,47,0.70
2006,12,14,04,48,0.30
2006,12,14,04,49,0.60
2006,12,14,04,50,3.50
2006,12,14,04,51,3.90
2006,12,14,04,52,0.30
2006,12,14,04,53,1.30
2006,12,14,04,54,0.30
2006,12,14,04,55,1.10
2006,12,14,04,56,0.20
2006,12,14,04,57,4.50
2006,12,14,04,58,2.40
2006,12,14,04,59,0.20
2006,12,14,05,00,0.20
2006,12,14,05,01,0.00
2006,12,14,05,02,0.00
2006,12,14,05,03,0.00
2006,12,14,05,04,0.00
2006,12,14,05,05,1.80
2006,12,14,05,06,0.70
2006,12,14,05,07,0.60
2006,12,14,05,08,1.50
2006,12,14,05,09,0.10
2006,12,14,05,10,0.50
2006,12,14,05,11,0.70
2006,12,14,05,12,0.30
2006,12,14,05,13,0.30
2006,12,14,05,14,2.40
2006,12,14,05,15,0.90
2006,12,14,05,16,0.00
2006,12,14,05,17,0.00
2006,12,14,05,18,0.00
2006,12,14,05,19,1.50
2006,12,14,05,20,0.80
2006,12,14,05,21,0.00
2006,12,14,05,22,0.00
2006,12,14,05,23,0.00
2006,12,14,05,24,0.10
2006,12,14,05,25,0.00
2006,12,14,05,26,0.00
2006,12,14,05,27,0.00
2006,12,14,05,28,0.00
2006,12,14,05,29,0.00
2006,12,14,05,30,0.00
2006,12,14,05,31,0.00
2006,12,14,05,32,0.00
2006,12,14,05,33,0.00
2006,12,14,05,34,0.00
2006,12,14,05,35,0.80
2006,12,14,05,36,0.30
2006,12,14,05,37,0.00
2006,12,14,05,38,0.00
2006,12,14,05,39,0.00
2006,12,14,05,40,0.00
2006,12,14,05,41,1.40
2006,12,14,05,42,0.20
2006,12,14,05,43,0.60
2006,12,14,05,44,0.30
2006,12,14,05,45,0.00
2006,12,14,05,46,0.00
2006,12,14,05,47,0.00
2006,12,14,05,48,0.00
2006,12,14,05,49,0.00
2006,12,14,05,50,0.50
2006,12,14,05,51,0.50
2006,12,14,05,52,1.30
2006,12,14,05,53,2.90
2006,12,14,05,54,0.60
2006,12,14,05,55,0.00
2006,12,14,05,56,0.40
2006,12,14,05,57,0.00
2006,12,14,05,58,0.00
2006,12,14,05,59,0.00
2006,12,14,06,00,0.00
2006,12,14,06,01,0.00
2006,12,14,06,02,0.00
2006,12,14,06,03,1.00
2006,12,14,06,04,2.90
2006,12,14,06,05,1.90
2006,12,14,06,06,0.10
2006,12,14,06,07,2.00
2006,12,14,06,08,1.20
2006,12,14,06,09,0.00
2006,12,14,06,10,0.90
2006,12,14,06,11,3.50
2006,12,14,06,12,6.00
2006,12,14,06,13,2.60
2006,12,14,06,14,1.40
2006,12,14,06,15,0.00
2006,12,14,06,16,0.00
2006,12,14,06,17,1.80
2006,12,14,06,18,1.90
2006,12,14,06,19,1.20
2006,12,14,06,20,0.00
2006,12,14,06,21,1.60
2006,12,14,06,22,0.30
2006,12,14,06,23,1.30
2006,12,14,06,24,0.00
2006,12,14,06,25,0.50
2006,12,14,06,26,1.00
2006,12,14,06,27,0.00
2006,12,14,06,28,0.00
2006,12,14,06,29,0.10
2006,12,14,06,30,0.00
2006,12,14,06,31,1.00
2006,12,14,06,32,0.00
2006,12,14,06,33,0.20
2006,12,14,06,34,1.60
2006,12,14,06,35,1.00
2006,12,14,06,36,3.60
2006,12,14,06,37,1.40
2006,12,14,06,38,0.10
2006,12,14,06,39,1.00
2006,12,14,06,40,0.00
2006,12,14,06,41,0.20
2006,12,14,06,42,0.10
2006,12,14,06,43,0.50
2006,12,14,06,44,0.20
2006,12,14,06,45,2.40
2006,12,14,06,46,6.70
2006,12,14,06,47,2.40
2006,12,14,06,48,0.40
2006,12,14,06,49,0.00
2006,12,14,06,50,1.50
2006,12,14,06,51,1.70
2006,12,14,06,52,3.60
2006,12,14,06,53,3.60
2006,12,14,06,54,1.50
2006,12,14,06,55,3.80
2006,12,14,06,56,2.60
2006,12,14,06,57,2.10
2006,12,14,06,58,2.70
2006,12,14,06,59,4.00
2006,12,14,07,00,2.60
2006,12,14,07,01,1.40
2006,12,14,07,02,6.30
2006,12,14,07,03,4.70
2006,12,14,07,04,0.80
2006,12,14,07,05,0.80
2006,12,14,07,06,0.90
2006,12,14,07,07,4.30
2006,12,14,07,08,7.50
2006,12,14,07,09,3.70
2006,12,14,07,10,1.90
2006,12,14,07,11,3.00
2006,12,14,07,12,5.10
2006,12,14,07,13,3.20
2006,12,14,07,14,6.80
2006,12,14,07,15,2.70
2006,12,14,07,16,1.90
2006,12,14,07,17,3.40
2006,12,14,07,18,3.30
2006,12,14,07,19,1.40
2006,12,14,07,20,0.00
2006,12,14,07,21,0.00
2006,12,14,07,22,0.70
2006,12,14,07,23,0.00
2006,12,14,07,24,0.60
2006,12,14,07,25,1.50
2006,12,14,07,26,0.00
2006,12,14,07,27,0.00
2006,12,14,07,28,0.00
2006,12,14,07,29,0.40
2006,12,14,07,30,1.00
2006,12,14,07,31,0.00
2006,12,14,07,32,0.70
2006,12,14,07,33,0.60
2006,12,14,07,34,1.40
2006,12,14,07,35,4.70
2006,12,14,07,36,3.90
2006,12,14,07,37,2.00
2006,12,14,07,38,3.70
2006,12,14,07,39,0.70
2006,12,14,07,40,0.10
2006,12,14,07,41,1.60
2006,12,14,07,42,0.00
2006,12,14,07,43,1.30
2006,12,14,07,44,3.40
2006,12,14,07,45,0.40
2006,12,14,07,46,0.80
2006,12,14,07,47,3.10
2006,12,14,07,48,3.20
2006,12,14,07,49,4.30
2006,12,14,07,50,2.80
2006,12,14,07,51,2.70
2006,12,14,07,52,6.30
2006,12,14,07,53,2.40
2006,12,14,07,54,2.90
2006,12,14,07,55,4.30
2006,12,14,07,56,2.40
2006,12,14,07,57,2.20
2006,12,14,07,58,3.90
2006,12,14,07,59,1.70
2006,12,14,08,00,0.90
2006,12,14,08,01,1.20
2006,12,14,08,02,3.40
2006,12,14,08,03,1.10
2006,12,14,08,04,0.70
2006,12,14,08,05,2.20
2006,12,14,08,06,1.80
2006,12,14,08,07,0.30
2006,12,14,08,08,5.10
2006,12,14,08,09,1.70
2006,12,14,08,10,3.80
2006,12,14,08,11,6.10
2006,12,14,08,12,2.40
2006,12,14,08,13,1.80
2006,12,14,08,14,7.00
2006,12,14,08,15,4.70
2006,12,14,08,16,6.40
2006,12,14,08,17,4.70
2006,12,14,08,18,7.20
2006,12,14,08,19,5.20
2006,12,14,08,20,6.10
2006,12,14,08,21,7.60
2006,12,14,08,22,8.90
2006,12,14,08,23,8.60
2006,12,14,08,24,5.60
2006,12,14,08,25,1.50
2006,12,14,08,26,1.10
2006,12,14,08,27,1.10
2006,12,14,08,28,7.40
2006,12,14,08,29,4.30
2006,12,14,08,30,7.70
2006,12,14,08,31,5.30
2006,12,14,08,32,5.40
2006,12,14,08,33,8.70
2006,12,14,08,34,6.10
2006,12,14,08,35,3.30
2006,12,14,08,36,7.00
2006,12,14,08,37,7.10
2006,12,14,08,38,6.40
2006,12,14,08,39,4.00
2006,12,14,08,40,5.50
2006,12,14,08,41,10.70
2006,12,14,08,42,7.60
2006,12,14,08,43,6.40
2006,12,14,08,44,4.10
2006,12,14,08,45,2.30
2006,12,14,08,46,3.10
2006,12,14,08,47,11.50
2006,12,14,08,48,3.50
2006,12,14,08,49,2.20
2006,12,14,08,50,2.80
2006,12,14,08,51,3.50
2006,12,14,08,52,5.70
2006,12,14,08,53,10.30
2006,12,14,08,54,5.40
2006,12,14,08,55,4.40
2006,12,14,08,56,4.40
2006,12,14,08,57,2.80
2006,12,14,08,58,1.20
2006,12,14,08,59,10.50
2006,12,14,09,00,2.50
2006,12,14,09,01,4.00
2006,12,14,09,02,7.40
2006,12,14,09,03,8.00
2006,12,14,09,04,7.60
2006,12,14,09,05,5.00
2006,12,14,09,06,3.30
2006,12,14,09,07,2.80
2006,12,14,09,08,8.40
2006,12,14,09,09,5.10
2006,12,14,09,10,5.20
2006,12,14,09,11,1.10
2006,12,14,09,12,7.40
2006,12,14,09,13,5.20
2006,12,14,09,14,5.50
2006,12,14,09,15,0.60
2006,12,14,09,16,2.50
2006,12,14,09,17,7.40
2006,12,14,09,18,3.30
2006,12,14,09,19,6.60
2006,12,14,09,20,6.60
2006,12,14,09,21,3.50
2006,12,14,09,22,9.60
2006,12,14,09,23,7.40
2006,12,14,09,24,2.10
2006,12,14,09,25,6.60
2006,12,14,09,26,3.20
2006,12,14,09,27,7.80
2006,12,14,09,28,9.80
2006,12,14,09,29,6.80
2006,12,14,09,30,4.30
2006,12,14,09,31,4.30
2006,12,14,09,32,7.20
2006,12,14,09,33,7.70
2006,12,14,09,34,7.50
2006,12,14,09,35,7.10
2006,12,14,09,36,7.70
2006,12,14,09,37,17.30
2006,12,14,09,38,7.60
2006,12,14,09,39,9.60
2006,12,14,09,40,5.30
2006,12,14,09,41,3.90
2006,12,14,09,42,7.20
2006,12,14,09,43,5.90
2006,12,14,09,44,2.30
2006,12,14,09,45,5.30
2006,12,14,09,46,6.40
2006,12,14,09,47,8.70
2006,12,14,09,48,6.00
2006,12,14,09,49,11.00
2006,12,14,09,50,8.40
2006,12,14,09,51,5.50
2006,12,14,09,52,11.60
2006,12,14,09,53,13.30
2006,12,14,09,54,12.50
2006,12,14,09,55,7.40
2006,12,14,09,56,6.80
2006,12,14,09,57,9.30
2006,12,14,09,58,6.40
2006,12,14,09,59,5.60
2006,12,14,10,00,5.00
2006,12,14,10,01,2.60
2006,12,14,10,02,1.50
2006,12,14,10,03,1.30
2006,12,14,10,04,2.50
2006,12,14,10,05,2.10
2006,12,14,10,06,7.90
2006,12,14,10,07,3.40
2006,12,14,10,08,8.70
2006,12,14,10,09,7.70
2006,12,14,10,10,3.90
2006,12,14,10,11,6.00
2006,12,14,10,12,6.90
2006,12,14,10,13,2.80
2006,12,14,10,14,8.70
2006,12,14,10,15,8.30
2006,12,14,10,16,10.30
2006,12,14,10,17,12.40
2006,12,14,10,18,7.70
2006,12,14,10,19,10.60
2006,12,14,10,20,8.50
2006,12,14,10,21,9.60
2006,12,14,10,22,6.20
2006,12,14,10,23,5.60
2006,12,14,10,24,6.10
2006,12,14,10,25,3.10
2006,12,14,10,26,3.10
2006,12,14,10,27,6.00
2006,12,14,10,28,8.40
2006,12,14,10,29,5.50
2006,12,14,10,30,6.40
2006,12,14,10,31,5.10
2006,12,14,10,32,4.10
2006,12,14,10,33,7.00
2006,12,14,10,34,4.70
2006,12,14,10,35,4.10
2006,12,14,10,36,4.30
2006,12,14,10,37,7.90
2006,12,14,10,38,6.40
2006,12,14,10,39,9.90
2006,12,14,10,40,4.40
2006,12,14,10,41,5.00
2006,12,14,10,42,4.20
2006,12,14,10,43,15.30
2006,12,14,10,44,11.70
2006,12,14,10,45,10.70
2006,12,14,10,46,8.40
2006,12,14,10,47,14.70
2006,12,14,10,48,9.80
2006,12,14,10,49,11.80
2006,12,14,10,50,3.70
2006,12,14,10,51,6.50
2006,12,14,10,52,4.40
2006,12,14,10,53,6.60
2006,12,14,10,54,6.40
2006,12,14,10,55,7.10
2006,12,14,10,56,4.20
2006,12,14,10,57,10.20
2006,12,14,10,58,5.50
2006,12,14,10,59,9.90
2006,12,14,11,00,6.00
2006,12,14,11,01,6.30
2006,12,14,11,02,6.00
2006,12,14,11,03,2.10
2006,12,14,11,04,1.60
2006,12,14,11,05,7.40
2006,12,14,11,06,5.70
2006,12,14,11,07,8.70
2006,12,14,11,08,6.80
2006,12,14,11,09,8.40
2006,12,14,11,10,5.20
2006,12,14,11,11,6.80
2006,12,14,11,12,13.90
2006,12,14,11,13,7.10
2006,12,14,11,14,4.80
2006,12,14,11,15,8.60
2006,12,14,11,16,5.00
2006,12,14,11,17,5.10
2006,12,14,11,18,4.40
2006,12,14,11,19,10.70
2006,12,14,11,20,6.00
2006,12,14,11,21,8.70
2006,12,14,11,22,8.50
2006,12,14,11,23,5.50
2006,12,14,11,24,3.80
2006,12,14,11,25,8.70
2006,12,14,11,26,5.10
2006,12,14,11,27,9.00
2006,12,14,11,28,1.00
2006,12,14,11,29,3.10
2006,12,14,11,30,7.00
2006,12,14,11,31,4.70
2006,12,14,11,32,5.50
2006,12,14,11,33,1.00
2006,12,14,11,34,1.60
2006,12,14,11,35,3.90
2006,12,14,11,36,7.60
2006,12,14,11,37,3.50
2006,12,14,11,38,3.20
2006,12,14,11,39,4.80
2006,12,14,11,40,4.60
2006,12,14,11,41,2.10
2006,12,14,11,42,2.70
2006,12,14,11,43,7.10
2006,12,14,11,44,4.90
2006,12,14,11,45,6.50
2006,12,14,11,46,3.90
2006,12,14,11,47,5.40
2006,12,14,11,48,2.30
2006,12,14,11,49,4.70
2006,12,14,11,50,2.00
2006,12,14,11,51,5.80
2006,12,14,11,52,2.20
2006,12,14,11,53,3.70
2006,12,14,11,54,3.20
2006,12,14,11,55,2.60
2006,12,14,11,56,4.00
2006,12,14,11,57,8.90
2006,12,14,11,58,4.70
2006,12,14,11,59,3.90
2006,12,14,12,00,1.10
2006,12,14,12,01,2.20
2006,12,14,12,02,6.40
2006,12,14,12,03,4.90
2006,12,14,12,04,1.20
2006,12,14,12,05,4.10
2006,12,14,12,06,4.70
2006,12,14,12,07,5.30
2006,12,14,12,08,4.50
2006,12,14,12,09,5.00
2006,12,14,12,10,9.80
2006,12,14,12,11,5.40
2006,12,14,12,12,2.80
2006,12,14,12,13,5.00
2006,12,14,12,14,10.20
2006,12,14,12,15,7.40
2006,12,14,12,16,5.80
2006,12,14,12,17,4.00
2006,12,14,12,18,9.30
2006,12,14,12,19,7.60
2006,12,14,12,20,4.80
2006,12,14,12,21,2.80
2006,12,14,12,22,1.50
2006,12,14,12,23,0.50
2006,12,14,12,24,5.50
2006,12,14,12,25,4.10
2006,12,14,12,26,2.90
2006,12,14,12,27,1.00
2006,12,14,12,28,6.50
2006,12,14,12,29,3.40
2006,12,14,12,30,3.70
2006,12,14,12,31,8.60
2006,12,14,12,32,4.40
2006,12,14,12,33,0.50
2006,12,14,12,34,2.80
2006,12,14,12,35,1.50
2006,12,14,12,36,4.00
2006,12,14,12,37,0.80
2006,12,14,12,38,0.50
2006,12,14,12,39,0.00
2006,12,14,12,40,0.40
2006,12,14,12,41,0.30
2006,12,14,12,42,2.60
2006,12,14,12,43,4.50
2006,12,14,12,44,2.80
2006,12,14,12,45,0.10
2006,12,14,12,46,0.60
2006,12,14,12,47,1.90
2006,12,14,12,48,0.90
2006,12,14,12,49,1.50
2006,12,14,12,50,1.20
2006,12,14,12,51,1.30
2006,12,14,12,52,0.90
2006,12,14,12,53,2.50
2006,12,14,12,54,3.80
2006,12,14,12,55,1.40
2006,12,14,12,56,2.60
2006,12,14,12,57,2.60
2006,12,14,12,58,1.10
2006,12,14,12,59,2.50
2006,12,14,13,00,0.40
2006,12,14,13,01,5.10
2006,12,14,13,02,3.90
2006,12,14,13,03,2.90
2006,12,14,13,04,2.80
2006,12,14,13,05,2.50
2006,12,14,13,06,1.60
2006,12,14,13,07,1.80
2006,12,14,13,08,0.60
2006,12,14,13,09,0.00
2006,12,14,13,10,2.30
2006,12,14,13,11,3.50
2006,12,14,13,12,0.30
2006,12,14,13,13,0.00
2006,12,14,13,14,0.10
2006,12,14,13,15,2.30
2006,12,14,13,16,1.10
2006,12,14,13,17,0.30
2006,12,14,13,18,3.90
2006,12,14,13,19,4.30
2006,12,14,13,20,1.30
2006,12,14,13,21,0.70
2006,12,14,13,22,0.00
2006,12,14,13,23,0.00
2006,12,14,13,24,1.20
2006,12,14,13,25,2.50
2006,12,14,13,26,0.70
2006,12,14,13,27,0.20
2006,12,14,13,28,0.80
2006,12,14,13,29,0.60
2006,12,14,13,30,2.10
2006,12,14,13,31,2.90
2006,12,14,13,32,3.10
2006,12,14,13,33,4.50
2006,12,14,13,34,6.00
2006,12,14,13,35,0.30
2006,12,14,13,36,2.10
2006,12,14,13,37,1.20
2006,12,14,13,38,1.40
2006,12,14,13,39,1.30
2006,12,14,13,40,2.20
2006,12,14,13,41,0.10
2006,12,14,13,42,1.00
2006,12,14,13,43,2.20
2006,12,14,13,44,2.70
2006,12,14,13,45,2.10
2006,12,14,13,46,2.20
2006,12,14,13,47,1.90
2006,12,14,13,48,2.50
2006,12,14,13,49,5.30
2006,12,14,13,50,3.10
2006,12,14,13,51,2.10
2006,12,14,13,52,4.80
2006,12,14,13,53,3.80
2006,12,14,13,54,2.40
2006,12,14,13,55,3.30
2006,12,14,13,56,1.80
2006,12,14,13,57,2.80
2006,12,14,13,58,2.30
2006,12,14,13,59,5.10
2006,12,14,14,00,6.00
2006,12,14,14,01,6.10
2006,12,14,14,02,6.50
2006,12,14,14,03,5.40
2006,12,14,14,04,1.60
2006,12,14,14,05,0.00
2006,12,14,14,06,0.40
2006,12,14,14,07,1.80
2006,12,14,14,08,2.00
2006,12,14,14,09,0.20
2006,12,14,14,10,1.60
2006,12,14,14,11,1.50
2006,12,14,14,12,1.50
2006,12,14,14,13,0.20
2006,12,14,14,14,0.00
2006,12,14,14,15,0.00
2006,12,14,14,16,0.90
2006,12,14,14,17,0.00
2006,12,14,14,18,0.40
2006,12,14,14,19,1.80
2006,12,14,14,20,1.90
2006,12,14,14,21,2.80
2006,12,14,14,22,2.70
2006,12,14,14,23,1.90
2006,12,14,14,24,0.00
2006,12,14,14,25,3.70
2006,12,14,14,26,0.40
2006,12,14,14,27,0.80
2006,12,14,14,28,1.30
2006,12,14,14,29,0.90
2006,12,14,14,30,1.00
2006,12,14,14,31,0.00
2006,12,14,14,32,0.60
2006,12,14,14,33,4.20
2006,12,14,14,34,0.90
2006,12,14,14,35,2.40
2006,12,14,14,36,2.00
2006,12,14,14,37,1.10
2006,12,14,14,38,3.80
2006,12,14,14,39,5.50
2006,12,14,14,40,2.20
2006,12,14,14,41,3.70
2006,12,14,14,42,2.20
2006,12,14,14,43,3.90
2006,12,14,14,44,1.90
2006,12,14,14,45,3.40
2006,12,14,14,46,2.50
2006,12,14,14,47,7.80
2006,12,14,14,48,3.60
2006,12,14,14,49,4.30
2006,12,14,14,50,3.10
2006,12,14,14,51,3.00
2006,12,14,14,52,6.20
2006,12,14,14,53,3.70
2006,12,14,14,54,3.80
2006,12,14,14,55,4.80
2006,12,14,14,56,3.00
2006,12,14,14,57,6.10
2006,12,14,14,58,3.00
2006,12,14,14,59,5.10
2006,12,14,15,00,1.10
2006,12,14,15,01,0.40
2006,12,14,15,02,3.70
2006,12,14,15,03,2.50
2006,12,14,15,04,3.40
2006,12,14,15,05,5.20
2006,12,14,15,06,3.50
2006,12,14,15,07,1.90
2006,12,14,15,08,1.20
2006,12,14,15,09,0.80
2006,12,14,15,10,6.00
2006,12,14,15,11,4.70
2006,12,14,15,12,7.30
2006,12,14,15,13,2.70
2006,12,14,15,14,2.40
2006,12,14,15,15,3.10
2006,12,14,15,16,3.20
2006,12,14,15,17,4.70
2006,12,14,15,18,6.40
2006,12,14,15,19,5.70
2006,12,14,15,20,7.50
2006,12,14,15,21,3.50
2006,12,14,15,22,2.40
2006,12,14,15,23,2.40
2006,12,14,15,24,9.80
2006,12,14,15,25,3.90
2006,12,14,15,26,7.70
2006,12,14,15,27,6.40
2006,12,14,15,28,7.50
2006,12,14,15,29,4.60
2006,12,14,15,30,6.30
2006,12,14,15,31,3.70
2006,12,14,15,32,4.90
2006,12,14,15,33,6.40
2006,12,14,15,34,5.90
2006,12,14,15,35,10.30
2006,12,14,15,36,5.50
2006,12,14,15,37,3.00
2006,12,14,15,38,8.30
2006,12,14,15,39,11.50
2006,12,14,15,40,6.10
2006,12,14,15,41,10.50
2006,12,14,15,42,11.20
2006,12,14,15,43,2.40
2006,12,14,15,44,3.70
2006,12,14,15,45,10.50
2006,12,14,15,46,6.70
2006,12,14,15,47,11.00
2006,12,14,15,48,7.50
2006,12,14,15,49,10.00
2006,12,14,15,50,11.50
2006,12,14,15,51,6.60
2006,12,14,15,52,10.90
2006,12,14,15,53,4.30
2006,12,14,15,54,5.50
2006,12,14,15,55,3.50
2006,12,14,15,56,6.30
2006,12,14,15,57,10.60
2006,12,14,15,58,7.10
2006,12,14,15,59,5.10
2006,12,14,16,00,9.00
2006,12,14,16,01,7.00
2006,12,14,16,02,5.00
2006,12,14,16,03,5.50
2006,12,14,16,04,4.20
2006,12,14,16,05,8.30
2006,12,14,16,06,8.00
2006,12,14,16,07,4.10
2006,12,14,16,08,3.90
2006,12,14,16,09,9.30
2006,12,14,16,10,11.40
2006,12,14,16,11,4.70
2006,12,14,16,12,4.00
2006,12,14,16,13,10.00
2006,12,14,16,14,11.90
2006,12,14,16,15,6.40
2006,12,14,16,16,3.90
2006,12,14,16,17,9.00
2006,12,14,16,18,7.50
2006,12,14,16,19,7.60
2006,12,14,16,20,8.90
2006,12,14,16,21,4.90
2006,12,14,16,22,7.20
2006,12,14,16,23,7.10
2006,12,14,16,24,15.10
2006,12,14,16,25,8.10
2006,12,14,16,26,5.80
2006,12,14,16,27,10.50
2006,12,14,16,28,9.10
2006,12,14,16,29,3.10
2006,12,14,16,30,9.90
2006,12,14,16,31,9.00
2006,12,14,16,32,10.20
2006,12,14,16,33,11.20
2006,12,14,16,34,7.10
2006,12,14,16,35,7.60
2006,12,14,16,36,6.90
2006,12,14,16,37,9.40
2006,12,14,16,38,8.90
2006,12,14,16,39,10.00
2006,12,14,16,40,5.40
2006,12,14,16,41,2.80
2006,12,14,16,42,9.20
2006,12,14,16,43,11.50
2006,12,14,16,44,6.10
2006,12,14,16,45,11.80
2006,12,14,16,46,6.50
2006,12,14,16,47,9.00
2006,12,14,16,48,10.10
2006,12,14,16,49,10.10
2006,12,14,16,50,3.90
2006,12,14,16,51,6.40
2006,12,14,16,52,4.70
2006,12,14,16,53,6.00
2006,12,14,16,54,4.90
2006,12,14,16,55,6.70
2006,12,14,16,56,7.90
2006,12,14,16,57,9.30
2006,12,14,16,58,8.90
2006,12,14,16,59,7.10
2006,12,14,17,00,1.90
2006,12,14,17,01,0.90
2006,12,14,17,02,8.00
2006,12,14,17,03,6.90
2006,12,14,17,04,0.80
2006,12,14,17,05,1.70
2006,12,14,17,06,7.90
2006,12,14,17,07,3.60
2006,12,14,17,08,1.40
2006,12,14,17,09,3.50
2006,12,14,17,10,3.30
2006,12,14,17,11,4.30
2006,12,14,17,12,3.40
2006,12,14,17,13,0.50
2006,12,14,17,14,1.20
2006,12,14,17,15,7.30
2006,12,14,17,16,5.40
2006,12,14,17,17,2.40
2006,12,14,17,18,4.10
2006,12,14,17,19,1.80
2006,12,14,17,20,7.20
2006,12,14,17,21,3.70
2006,12,14,17,22,5.10
2006,12,14,17,23,4.50
2006,12,14,17,24,7.50
2006,12,14,17,25,6.90
2006,12,14,17,26,5.10
2006,12,14,17,27,5.30
2006,12,14,17,28,5.00
2006,12,14,17,29,5.40
2006,12,14,17,30,2.00
2006,12,14,17,31,1.20
2006,12,14,17,32,3.00
2006,12,14,17,33,1.00
2006,12,14,17,34,7.50
2006,12,14,17,35,5.60
2006,12,14,17,36,5.30
2006,12,14,17,37,5.10
2006,12,14,17,38,2.20
2006,12,14,17,39,1.40
2006,12,14,17,40,5.20
2006,12,14,17,41,0.80
2006,12,14,17,42,3.10
2006,12,14,17,43,6.90
2006,12,14,17,44,5.30
2006,12,14,17,45,5.90
2006,12,14,17,46,2.40
2006,12,14,17,47,9.40
2006,12,14,17,48,6.60
2006,12,14,17,49,2.50
2006,12,14,17,50,3.10
2006,12,14,17,51,2.60
2006,12,14,17,52,6.70
2006,12,14,17,53,5.60
2006,12,14,17,54,5.00
2006,12,14,17,55,7.30
2006,12,14,17,56,3.90
2006,12,14,17,57,7.00
2006,12,14,17,58,8.10
2006,12,14,17,59,6.10
2006,12,14,18,00,2.80
2006,12,14,18,01,3.30
2006,12,14,18,02,7.10
2006,12,14,18,03,7.50